ONEWEB-0138, 47284

Orbit data source: Space-Track

ONEWEB-0138, 47284 is a payload satellite owned by One Web (UK) in LEO that was launched on Fri, 18 Dec 2020 UTC via a SOYUZ-2-1B launch vehicle from the Vostochny Cosmodrome (VOSTO). Payload-class satellites include a variety of spacecraft equipped with specific instruments for various scientific and technological missions. These include communications satellites like Starlink; space stations such as the ISS; scientific satellites like the Hubble; Earth observation satellites from companies like Planet Labs, Umbra, and HawkEye 360; GPS; miniature CubeSats for education and research; and military/defense satellites.

Loading next visibility...
Identifier
47284, 2020-100AC
Orbit
LEO
Country
Flag of UKUK
Related business
Manufacturer
One Web
Mission
Operational Commercial Communications
Bus & Motor
ARROW, Unknown motor
Mass
148 kg wet, ~140 kg dry
Launch date (UTC)
2020-12-18 (5 years ago)
Launch vehicle
SOYUZ-2-1B
Launch site
Vostochny Cosmodrome (VOSTO)
Object type
Payload
Rocket body
Debris
Shape & HBR
Trap Box + 2 Pan, 6.7 m
Radar Cross Section
3.464 m², Large (>1 m²)

Expand to show TLE details & history
Last TLE update: 9 hours ago

TLE from 9 hours ago
0 ONEWEB-0138
1 47284U 20100AC  26095.47315090 -.00000264  00000-0 -76922-3 0  9992
2 47284  87.9018   5.1035 0001980  74.5816 285.5531 13.12442070255110
Epoch: 2026-04-05T11:21Z
TLE epoch observation values (Epoch: 2026-04-05T11:21:20.237Z)
Latitude
-0.00005°
Longitude
0.99111°
Altitude
1,216.215 km
Speed
7.246 km/s
True Right ascension
00h 20m 24s
True Declination
0° 00' 00"
Sunlit
Object was in daylight at epoch
Visualization orbit readout
Latitude
Unknown
Longitude
Unknown
Altitude
Unknown
Speed
Unknown
Apparent Right ascension
Unknown
Apparent Declination
Unknown
Sunlit
N/A
Visualization observer readout
Local Sidereal Time
02:45:43
Azimuth
Unknown
Elevation
Unknown
Doppler factor
Unknown
Orbital elements
Apogee altitude
1,212.346 km
Perigee altitude
1,209.341 km
Semi-major axis
7,588.98 km
Eccentricity
0.0002
Inclination
87.9018°
RAAN
5.1035°
Arg. of periapsis
74.5816°
True anomaly
285.53124°
Mean anomaly
285.5531°
Eccentric anomaly
285.54217°
Mean motion
3.28298 °/min
Orbital period
109.66 mins
BSTAR
-0.00076922
Loading maneuver chart data...
Computing Atmospheric mass density...
Loading historical data...
Loading historical data...
Loading historical data...
Loading historical data...
Loading historical data...
Loading historical data...
Loading historical data...

Documentation

Showing up to 5 results
|